Temp
-5 -5 -5 -6 -7 -7 -7 -6 -6 -4 -5 -6 -7 -6 -6 -6 -6 -6 -6 -6 -6 -6 -5 -5 -5 -5 -6 -5 -5 -5 -5 -6 -6 -6 -5 -5 -6 -6 -6 -6 -6 -6 -6 -6
-4 -4 -5 -6 -7 -8 -7 -6 -7 -6 -6 -6 -6 -6 -7 -6 -6 -6 -5 -6 -6 -6 -6 -5 -5 -5 -5 -5 -5 -6 -6 -6 -6 -6 -5 -6 -6 -6 -6 -6 -6 -6 -6 -6
-4 -4 -5 -6 -7 -7 -7 -7 -5 -7 -7 -6 -6 -6 -6 -6 -5 -5 -5 -5 -6 -6 -6 -5 -5 -5 -5 -5 -5 -5 -5 -5 -5 -5 -5 -5 -6 -6 -6 -6 -6 -5 -5 -6
-5 -5 -6 -7 -7 -7 -7 -7 -7 -6 -6 -5 -6 -6 -6 -6 -5 -5 -5 -5 -5 -6 -5 -6 -5 -5 -5 -5 -5 -5 -5 -6 -6 -5 -5 -5 -5 -5 -5 -5 -5 -5 -5 -5
-6 -5 -7 -7 -7 -7 -7 -7 -6 -6 -6 -6 -6 -6 -6 -5 -5 -5 -5 -6 -5 -5 -5 -6 -5 -5 -5 -6 -5 -5 -5 -5 -5 -5 -5 -5 -5 -5 -6 -5 -5 -5 -5 -5
-6 -6 -6 -7 -7 -7 -7 -7 -6 -6 -6 -5 -5 -5 -5 -5 -5 -6 -5 -5 -5 -5 -5 -6 -6 -5 -5 -5 -6 -5 -5 -5 -5 -5 -6 -5 -6 -6 -6 -6 -6 -5 -6 -6
-7 -7 -7 -7 -6 -7 -7 -7 -6 -6 -6 -5 -5 -5 -5 -5 -6 -5 -5 -6 -6 -6 -6 -5 -6 -5 -5 -5 -6 -5 -5 -5 -6 -6 -6 -6 -6 -6 -6 -6 -6 -6 -6 -6
-8 -8 -7 -8 -7 -7 -6 -7 -7 -7 -6 -6 -5 -5 -5 -5 -5 -6 -6 -5 -5 -6 -6 -6 -6 -6 -5 -5 -6 -6 -6 -6 -6 -6 -6 -6 -6 -6 -6 -6 -6 -6 -6 -6
-8 -7 -7 -7 -8 -7 -7 -7 -7 -7 -6 -6 -6 -5 -5 -5 -5 -6 -6 -6 -5 -6 -7 -6 -6 -6 -6 -6 -5 -5 -6 -6 -6 -6 -6 -6 -6 -6 -6 -6 -6 -6 -6 -6
-8 -7 -7 -7 -7 -8 -8 -7 -7 -7 -7 -6 -6 -5 -5 -6 -6 -6 -5 -5 -7 -7 -7 -7 -6 -6 -6 -6 -6 -6 -5 -6 -6 -6 -6 -6 -6 -6 -6 -6 -7 -7 -7 -7
-9 -9 -7 -7 -8 -8 -8 -8 -8 -7 -7 -7 -6 -6 -6 -6 -6 -6 -5 -5 -6 -7 -8 -7 -6 -6 -7 -6 -6 -6 -6 -6 -6 -6 -6 -6 -6 -6 -6 -6 -6 -7 -7 -8
-8 -8 -8 -8 -8 -8 -8 -8 -8 -8 -7 -7 -6 -5 -6 -6 -6 -7 -6 -6 -7 -5 -8 -7 -6 -6 -6 -7 -7 -6 -6 -6 -6 -6 -7 -6 -7 -7 -7 -7 -7 -7 -7 -7
-8 -9 -9 -8 -8 -9 -9 -8 -8 -8 -7 -7 -7 -6 -7 -7 -6 -7 -7 -7 -8 -7 -8 -7 -7 -6 -6 -6 -7 -7 -6 -6 -6 -6 -7 -7 -7 -7 -7 -7 -7 -7 -8 -8
-8 -8 -8 -8 -8 -9 -8 -8 -8 -8 -8 -7 -7 -7 -7 -7 -7 -7 -7 -7 -7 -7 -7 -7 -7 -7 -6 -6 -6 -7 -7 -6 -6 -7 -7 -7 -7 -7 -7 -8 -8 -8 -8 -8
-8 -8 -8 -8 -8 -9 -7 -8 -8 -8 -8 -8 -7 -8 -7 -7 -8 -8 -7 -7 -7 -7 -7 -7 -7 -7 -7 -6 -6 -7 -7 -7 -7 -7 -7 -7 -7 -7 -7 -8 -8 -8 -8 -8
-8 -8 -8 -8 -8 -8 -8 -8 -9 -9 -9 -8 -8 -7 -8 -7 -8 -8 -8 -7 -7 -7 -7 -7 -7 -6 -7 -7 -6 -6 -7 -7 -7 -7 -7 -7 -7 -7 -7 -7 -8 -8 -8 -8
-8 -8 -8 -8 -9 -8 -8 -9 -10 -10 -9 -9 -8 -8 -8 -8 -8 -9 -7 -6 -6 -6 -7 -7 -7 -7 -7 -7 -6 -7 -7 -7 -7 -7 -7 -7 -7 -7 -7 -7 -8 -8 -8 -8
-8 -8 -8 -8 -8 -8 -9 -9 -11 -11 -11 -10 -10 -10 -10 -9 -9 -8 -8 -8 -7 -7 -8 -8 -7 -7 -7 -7 -7 -7 -7 -7 -7 -7 -7 -7 -7 -7 -8 -8 -8 -8 -8 -8
-8 -9 -9 -8 -8 -8 -8 -10 -11 -10 -10 -11 -10 -10 -10 -10 -9 -8 -8 -9 -10 -8 -10 -9 -9 -8 -8 -8 -6 -7 -8 -8 -7 -7 -7 -7 -7 -8 -8 -8 -8 -8 -8 -8
-9 -9 -9 -9 -9 -9 -9 -10 -11 -11 -10 -10 -10 -10 -9 -9 -9 -9 -9 -8 -8 -10 -9 -9 -9 -9 -9 -9 -8 -8 -8 -8 -8 -8 -7 -8 -7 -8 -8 -7 -8 -8 -8 -8
-10 -10 -10 -10 -10 -10 -10 -10 -10 -11 -11 -10 -9 -9 -9 -9 -10 -9 -9 -9 -9 -10 -10 -9 -9 -9 -9 -9 -8 -8 -8 -8 -8 -8 -8 -8 -8 -8 -8 -8 -8 -8 -8 -8
-9 -10 -10 -10 -10 -10 -11 -11 -11 -10 -10 -10 -10 -9 -8 -9 -9 -9 -8 -8 -8 -9 -9 -9 -9 -9 -9 -8 -8 -9 -8 -8 -8 -8 -8 -8 -8 -8 -8 -8 -8 -8 -8 -8
-10 -10 -10 -10 -9 -10 -10 -10 -10 -10 -10 -10 -10 -10 -9 -9 -9 -10 -10 -9 -9 -9 -10 -10 -10 -10 -9 -9 -9 -9 -8 -9 -8 -8 -8 -8 -8 -8 -8 -8 -8 -8 -8 -8
-10 -10 -10 -10 -10 -10 -11 -11 -11 -11 -10 -10 -10 -10 -9 -9 -9 -9 -9 -10 -11 -10 -9 -10 -10 -10 -10 -9 -9 -9 -9 -10 -9 -8 -8 -8 -8 -8 -8 -8 -8 -8 -8 -9
-10 -11 -11 -10 -10 -10 -11 -11 -10 -11 -10 -11 -11 -11 -10 -10 -9 -9 -9 -9 -11 -11 -10 -10 -10 -10 -10 -10 -10 -9 -9 -9 -9 -9 -8 -8 -8 -8 -8 -8 -8 -8 -8 -9
-11 -11 -10 -10 -11 -10 -10 -10 -11 -10 -10 -10 -10 -10 -11 -10 -9 -9 -9 -10 -10 -11 -11 -10 -10 -11 -11 -11 -10 -10 -10 -9 -9 -9 -8 -8 -8 -8 -8 -8 -8 -9 -9 -9
Height
5913 5913 5917 5920 5918 5920 5920 5922 5921 5913 5913 5915 5916 5924 5926 5925 5922 5926 5925 5922 5915 5911 5908 5906 5905 5908 5910 5909 5908 5908 5909 5910 5911 5910 5910 5911 5913 5913 5912 5911 5910 5909 5912 5912
5909 5910 5915 5918 5918 5921 5920 5922 5919 5919 5916 5908 5920 5926 5927 5924 5923 5923 5922 5922 5918 5914 5914 5910 5910 5910 5910 5910 5909 5909 5911 5912 5912 5911 5910 5911 5912 5912 5912 5910 5906 5907 5909 5911
5906 5910 5911 5915 5918 5918 5919 5921 5917 5918 5912 5925 5927 5924 5917 5921 5922 5922 5922 5921 5917 5916 5915 5915 5913 5912 5913 5914 5912 5912 5913 5912 5913 5914 5913 5911 5911 5910 5910 5908 5909 5909 5907 5909
5903 5906 5908 5910 5914 5919 5921 5919 5921 5921 5921 5923 5924 5924 5918 5920 5919 5922 5924 5921 5917 5916 5915 5916 5916 5914 5913 5913 5913 5913 5914 5915 5915 5914 5914 5913 5913 5914 5914 5914 5913 5911 5910 5909
5900 5902 5904 5907 5911 5914 5915 5914 5915 5916 5916 5918 5920 5922 5921 5921 5920 5921 5919 5917 5916 5915 5915 5915 5917 5916 5915 5915 5914 5914 5915 5915 5916 5916 5916 5916 5916 5916 5916 5914 5913 5913 5913 5913
5894 5896 5900 5902 5904 5906 5906 5906 5909 5911 5912 5912 5917 5919 5917 5917 5918 5920 5913 5913 5917 5913 5915 5915 5917 5917 5915 5915 5916 5915 5914 5914 5915 5916 5917 5917 5917 5917 5916 5915 5915 5914 5914 5914
5893 5896 5899 5902 5903 5904 5904 5905 5906 5907 5908 5909 5914 5914 5914 5912 5910 5913 5913 5914 5910 5911 5912 5912 5915 5917 5916 5915 5916 5916 5914 5914 5915 5916 5917 5918 5917 5916 5916 5916 5915 5914 5914 5913
5888 5890 5895 5898 5897 5898 5898 5900 5901 5901 5903 5905 5908 5909 5905 5906 5909 5907 5905 5901 5905 5900 5905 5908 5914 5914 5915 5915 5915 5915 5915 5914 5914 5915 5916 5916 5916 5915 5915 5914 5913 5912 5913 5913
5882 5883 5889 5891 5891 5894 5894 5895 5899 5897 5899 5899 5904 5907 5906 5906 5904 5902 5900 5897 5895 5898 5897 5905 5912 5913 5914 5916 5915 5914 5913 5913 5913 5913 5913 5913 5913 5913 5913 5913 5913 5913 5912 5911
5883 5881 5885 5886 5888 5890 5891 5894 5895 5895 5895 5896 5900 5903 5908 5906 5904 5902 5899 5895 5892 5894 5895 5904 5909 5910 5911 5913 5913 5912 5911 5911 5911 5911 5911 5911 5911 5911 5911 5912 5912 5911 5910 5909
5874 5876 5881 5883 5887 5886 5889 5888 5890 5892 5894 5895 5897 5899 5902 5904 5901 5896 5895 5891 5882 5887 5898 5903 5906 5907 5908 5909 5910 5910 5909 5909 5909 5909 5908 5909 5909 5909 5909 5909 5910 5909 5908 5905
5870 5871 5872 5877 5879 5879 5883 5883 5885 5886 5889 5892 5895 5899 5903 5898 5895 5889 5887 5889 5882 5886 5895 5900 5903 5905 5907 5907 5907 5907 5906 5906 5906 5906 5905 5906 5907 5908 5907 5907 5908 5907 5907 5904
5866 5867 5868 5873 5873 5873 5875 5878 5878 5880 5883 5886 5888 5892 5890 5890 5893 5889 5885 5886 5888 5894 5893 5893 5894 5899 5902 5903 5904 5904 5903 5902 5902 5902 5902 5904 5904 5905 5905 5905 5904 5904 5904 5903
5862 5862 5863 5866 5868 5866 5867 5869 5872 5873 5877 5877 5879 5878 5883 5885 5885 5888 5885 5883 5884 5887 5891 5892 5890 5890 5895 5897 5899 5901 5900 5899 5899 5899 5899 5901 5901 5901 5901 5902 5902 5901 5900 5899
5858 5858 5858 5858 5859 5860 5860 5863 5865 5867 5869 5870 5870 5872 5878 5877 5876 5877 5880 5880 5882 5883 5886 5887 5889 5884 5884 5890 5892 5895 5897 5897 5896 5897 5898 5899 5898 5898 5898 5898 5898 5897 5896 5895
5856 5855 5853 5853 5854 5854 5854 5855 5857 5862 5864 5865 5866 5867 5866 5870 5868 5866 5865 5872 5875 5879 5880 5880 5878 5881 5879 5879 5884 5886 5890 5893 5893 5894 5895 5895 5894 5894 5893 5893 5894 5892 5891 5890
5853 5851 5850 5850 5849 5849 5852 5852 5853 5854 5857 5858 5858 5858 5862 5860 5861 5861 5864 5862 5858 5848 5858 5865 5868 5869 5868 5870 5875 5878 5880 5884 5887 5888 5889 5890 5890 5889 5889 5888 5888 5887 5886 5885
5848 5847 5846 5846 5845 5846 5846 5846 5848 5849 5849 5849 5846 5847 5846 5848 5849 5852 5851 5848 5844 5850 5840 5852 5857 5859 5855 5855 5863 5868 5872 5875 5878 5880 5882 5884 5884 5883 5883 5882 5883 5882 5881 5879
5842 5841 5840 5840 5839 5841 5843 5841 5840 5839 5840 5839 5837 5837 5837 5838 5838 5840 5838 5837 5833 5812 5818 5839 5842 5846 5849 5848 5854 5858 5863 5867 5869 5871 5874 5876 5876 5875 5875 5874 5872 5875 5875 5874
5835 5833 5834 5835 5833 5834 5836 5836 5835 5833 5833 5829 5828 5830 5834 5834 5833 5831 5827 5825 5825 5826 5827 5840 5838 5838 5840 5844 5847 5852 5854 5857 5859 5862 5864 5865 5867 5869 5867 5865 5865 5867 5868 5867
5830 5829 5827 5825 5824 5826 5828 5825 5826 5826 5820 5817 5816 5820 5823 5824 5823 5822 5822 5822 5822 5826 5830 5827 5830 5831 5834 5837 5840 5843 5846 5848 5850 5852 5853 5855 5858 5859 5858 5855 5850 5857 5858 5858
5821 5820 5820 5820 5819 5819 5817 5816 5815 5814 5812 5811 5809 5809 5813 5814 5813 5813 5814 5811 5813 5814 5815 5819 5821 5821 5824 5830 5829 5831 5834 5838 5841 5843 5843 5844 5846 5847 5848 5848 5849 5850 5850 5849
5813 5810 5809 5811 5812 5811 5808 5804 5804 5803 5804 5803 5801 5799 5799 5805 5804 5800 5803 5802 5801 5805 5808 5807 5810 5812 5815 5818 5819 5822 5824 5825 5828 5829 5832 5833 5834 5836 5838 5840 5841 5840 5839 5840
5804 5804 5800 5801 5803 5800 5801 5797 5794 5794 5793 5794 5793 5789 5790 5787 5791 5790 5791 5795 5792 5790 5797 5798 5799 5803 5805 5807 5809 5812 5811 5811 5818 5819 5822 5824 5826 5828 5829 5829 5830 5831 5831 5831
5795 5793 5794 5790 5788 5786 5787 5787 5787 5784 5781 5779 5781 5780 5776 5774 5773 5778 5780 5781 5781 5779 5781 5788 5788 5790 5793 5796 5797 5799 5801 5805 5806 5807 5812 5814 5816 5818 5820 5820 5818 5821 5821 5821
5783 5782 5778 5778 5776 5772 5772 5774 5773 5773 5772 5769 5765 5766 5765 5760 5758 5757 5761 5767 5770 5769 5769 5774 5778 5778 5780 5783 5786 5788 5790 5792 5795 5798 5800 5801 5803 5804 5807 5807 5808 5809 5809 5810
Wind_Speed
19 20 15 12 4 17 23 22 7 8 17 10 17 20 22 24 21 20 19 23 25 20 19 19 14 10 7 2 4 2 5 5 6 6 7 5 5 8 10 13 11 10 11 9
22 24 15 13 8 17 23 20 16 24 15 16 9 19 25 21 23 20 13 13 18 22 16 17 18 17 15 14 12 12 12 13 12 13 13 16 10 7 3 2 5 8 12 9
21 19 15 12 3 18 26 23 11 24 18 19 8 18 28 19 19 24 21 11 11 18 21 14 12 14 15 13 12 13 13 14 12 11 12 14 15 16 18 13 12 8 3 6
21 16 17 17 16 17 22 23 22 14 19 8 9 11 21 29 30 24 22 27 9 13 17 18 11 7 10 12 11 9 10 11 12 10 10 11 12 12 11 11 13 15 15 12
18 19 14 17 16 18 24 27 25 23 17 15 13 12 19 23 24 23 26 3 8 14 12 14 18 9 4 7 9 6 8 9 10 10 10 12 12 12 12 14 15 13 13 12
17 17 18 15 22 24 29 30 27 32 29 24 10 7 16 22 23 22 28 29 21 15 14 16 11 17 5 3 4 6 6 8 9 10 10 8 7 7 9 9 11 12 12 10
5 2 8 13 16 20 26 29 26 19 26 24 9 13 22 31 30 23 28 34 12 9 15 15 8 10 9 4 2 2 3 7 8 8 8 7 7 8 6 5 8 8 7 6
6 9 6 15 22 15 16 26 15 16 11 12 7 16 26 23 25 25 29 38 12 5 7 15 15 8 9 6 4 4 2 2 1 1 5 6 4 5 3 4 6 6 6 6
21 21 16 6 10 17 16 14 19 21 18 19 11 11 19 21 24 22 33 20 20 11 6 11 19 10 3 6 6 4 6 5 3 3 4 5 5 4 3 2 4 7 9 10
21 17 25 18 12 14 21 15 18 23 22 22 14 12 10 11 14 20 27 14 10 4 6 7 16 11 6 2 5 6 6 7 6 5 6 6 6 4 3 4 6 10 10 9
26 27 19 29 14 11 10 17 11 9 23 19 15 11 5 13 19 22 19 23 14 5 6 9 16 13 10 5 5 6 5 6 6 6 7 6 4 5 5 6 9 13 20 14
19 20 21 20 16 19 20 15 12 19 17 12 19 15 8 15 12 14 23 13 19 16 11 13 13 13 13 10 5 7 8 7 8 10 9 7 4 5 7 8 10 13 16 18
12 16 18 17 25 18 18 19 23 26 24 20 17 18 18 19 15 10 12 22 22 17 11 21 24 24 17 16 13 10 9 9 12 13 13 9 6 7 7 9 11 13 13 18
12 12 14 18 27 27 28 28 27 27 30 28 24 24 24 19 19 21 19 19 21 29 32 28 28 27 24 19 17 15 12 11 13 15 15 10 7 8 9 8 12 14 15 16
12 12 15 17 22 32 34 27 33 33 28 34 33 26 33 27 16 22 26 31 29 31 33 31 30 32 30 23 21 19 15 14 13 12 12 12 12 12 11 11 11 12 11 13
13 13 15 14 15 18 23 30 31 31 33 33 36 37 30 33 25 23 25 34 38 41 39 37 39 36 37 36 24 23 21 19 19 18 17 16 17 17 16 14 11 7 9 12
16 17 16 12 14 16 14 14 14 17 32 32 35 33 36 41 39 33 49 53 57 57 53 48 47 44 42 39 31 28 25 24 23 22 21 19 19 19 18 18 13 9 14 15
18 18 19 16 18 14 11 11 7 16 20 23 27 23 28 32 41 44 43 53 62 43 36 46 46 44 43 37 34 32 28 24 25 27 25 21 21 21 17 17 19 16 19 19
19 18 20 21 20 17 11 8 12 14 20 23 35 33 34 37 42 47 53 52 56 56 25 23 33 42 42 43 34 32 31 24 24 24 29 24 25 24 22 27 21 24 21 24
19 21 22 19 22 19 15 16 20 24 24 32 36 38 39 41 47 47 51 54 55 39 23 27 31 33 33 34 36 32 33 31 29 26 29 30 30 26 29 30 28 26 23 26
22 24 26 26 25 21 16 23 24 32 38 37 35 33 32 36 41 43 49 52 54 51 47 31 33 37 38 33 31 32 35 35 32 32 31 32 30 31 33 38 25 25 25 30
26 28 27 26 28 30 27 28 28 33 36 38 35 39 33 28 31 32 34 37 36 33 28 27 32 39 40 40 37 36 34 35 35 34 34 36 35 34 35 31 30 29 30 33
31 33 33 32 30 28 32 37 35 36 38 40 42 45 40 32 34 39 35 36 37 29 27 30 32 34 41 40 35 36 40 36 36 37 37 38 40 38 37 35 33 34 33 32
34 33 37 35 30 30 28 36 41 41 42 40 42 46 44 46 39 38 38 35 38 40 29 31 36 39 40 41 40 39 37 32 38 37 39 40 39 40 38 36 38 36 38 35
33 33 32 36 39 39 39 38 38 43 48 49 47 49 52 54 54 49 43 39 37 43 41 30 33 41 41 43 45 44 46 45 41 38 41 42 41 43 41 39 41 39 40 39
30 31 35 36 40 45 45 44 47 47 49 53 54 52 57 62 62 61 57 49 44 45 45 41 34 35 41 45 44 45 46 48 47 46 45 44 43 42 40 43 42 40 41 41
Wind_Direction
227 225 198 168 14 309 320 340 245 97 129 90 19 344 334 329 341 359 0 8 21 28 38 46 63 84 85 62 22 57 69 37 20 7 2 317 265 289 308 295 292 273 267 282
225 237 209 186 94 296 295 327 330 359 16 50 53 308 317 320 323 336 2 359 24 33 39 57 68 68 72 77 82 84 84 79 68 55 56 57 65 59 40 32 347 290 261 244
226 232 210 187 76 290 307 301 353 334 9 314 342 287 304 302 306 320 318 352 48 40 36 29 48 59 54 59 75 81 80 75 72 64 61 66 64 57 48 59 44 39 94 176
220 223 222 193 217 232 270 300 282 241 268 315 266 275 298 307 321 345 330 332 86 46 26 26 15 25 51 36 41 73 79 76 66 62 65 66 65 70 61 58 60 64 72 95
225 214 223 218 212 228 240 256 245 244 248 259 274 279 264 295 326 320 318 16 78 42 62 36 16 8 33 45 22 52 88 87 80 76 76 74 62 57 54 56 55 55 66 75
251 226 208 223 235 243 235 249 241 241 246 248 291 336 308 320 295 303 307 316 309 29 52 26 17 9 354 37 16 11 72 88 84 78 69 57 46 41 43 39 36 41 41 42
274 267 246 284 289 268 252 254 271 250 248 270 278 315 306 301 294 320 300 308 268 21 1 13 14 12 15 352 329 336 62 107 106 91 73 44 26 26 38 27 17 14 22 10
202 224 277 294 282 299 263 245 231 256 270 283 262 296 315 328 324 318 312 317 276 173 11 360 351 357 25 357 354 275 222 214 180 49 12 9 6 16 56 62 16 21 25 4
207 220 199 197 240 280 289 250 226 236 230 255 246 276 307 324 327 311 323 320 292 313 21 348 330 333 6 21 6 328 252 249 265 311 327 331 328 348 15 10 350 340 343 337
264 258 201 200 206 203 246 275 254 231 239 238 232 255 279 332 320 294 288 257 184 285 336 329 317 300 303 316 343 341 295 264 262 280 289 303 312 340 14 28 2 3 346 335
257 253 234 212 223 261 292 282 289 284 242 245 235 191 231 293 323 305 276 265 172 188 257 289 297 282 283 296 316 316 309 281 262 258 272 282 304 319 346 7 19 5 5 332
274 252 242 209 210 233 233 230 231 251 252 246 253 192 204 293 302 314 281 278 317 288 228 263 278 282 274 278 286 283 301 289 267 258 262 270 286 310 331 337 323 337 360 22
275 266 257 218 205 222 241 215 216 224 234 231 249 215 256 273 245 265 293 292 280 276 273 294 283 277 279 272 271 280 287 288 262 255 258 256 277 310 318 318 325 338 357 10
272 262 257 244 217 226 228 221 224 227 227 228 219 231 227 254 263 244 246 255 256 265 260 263 274 285 283 270 264 267 276 280 265 253 252 237 264 288 310 313 320 333 351 4
290 266 257 249 236 233 241 245 228 229 221 224 219 226 217 240 268 259 239 244 251 262 268 270 272 281 276 264 259 255 257 270 262 250 250 262 273 279 291 303 322 329 338 350
293 288 280 275 265 255 245 246 245 223 225 225 240 222 229 231 244 259 256 254 256 259 259 262 265 268 263 262 248 249 243 252 263 267 263 270 272 273 282 288 302 333 330 326
283 291 287 290 275 271 284 270 251 253 228 237 242 244 245 244 239 250 248 249 250 247 246 244 255 262 266 253 246 240 237 239 253 263 265 266 269 275 272 279 274 297 309 320
274 277 281 284 282 282 267 258 243 265 257 231 238 250 247 241 233 235 238 252 250 256 246 247 249 254 255 245 242 240 237 234 244 247 253 261 262 263 261 259 263 280 306 311
274 271 273 278 276 279 279 207 249 254 238 243 234 239 238 240 239 241 240 256 264 263 327 252 248 249 245 247 242 233 240 241 247 247 244 247 253 251 258 258 251 276 294 299
291 292 288 286 284 278 265 249 235 242 263 256 253 248 248 251 253 259 258 261 269 291 303 262 262 233 233 240 250 235 232 240 247 253 241 242 242 254 263 257 256 272 281 289
266 264 270 280 281 283 279 265 236 239 252 258 268 271 267 265 265 259 261 266 271 276 274 277 248 241 235 238 244 248 234 233 236 247 238 237 245 251 256 260 268 266 274 278
277 273 270 270 270 270 269 262 260 254 261 268 271 274 283 274 267 268 272 277 277 277 274 241 236 244 247 239 238 244 245 237 239 242 241 235 241 247 252 258 261 263 274 270
271 271 279 279 282 277 271 271 265 263 264 269 275 281 284 275 272 276 279 280 283 280 272 265 255 254 248 250 246 246 245 239 237 239 240 244 245 247 253 256 259 262 267 269
263 270 276 284 285 277 266 271 277 278 274 270 272 275 279 283 279 273 273 270 277 278 272 260 253 250 250 251 253 251 256 248 245 243 243 246 252 252 257 258 260 261 265 267
276 267 268 271 274 270 267 265 264 269 274 275 275 276 281 282 281 277 267 262 264 267 268 259 253 248 247 251 256 255 253 253 252 248 247 247 252 256 256 258 258 261 262 267
274 275 271 269 265 266 270 272 272 272 270 268 269 271 275 278 281 283 279 275 266 265 266 262 256 254 248 247 247 253 259 257 257 255 253 251 254 256 256 259 260 262 266 269